Flag for U.S.A. Weather past 2 weeks in Savannah, Georgia, U.S.A.

Now
47 °F

Overcast.


Feels Like: 42 °F
Forecast: 44 / 49 °F
Wind: 10 mph from Northeast

Location: Hunter U. S. Army Airfield

Current Time: Feb 28, 2015 at 7:31:55 AM

Latest Report: Feb 28, 2015 at 6:58 AM


Visibility: 10 mi

Pressure: 30.46 "Hg

Humidity: 74%

Dew point: 39 °F

Location of SavannahLocation

Historic Weather in Savannah — Graph

°F

Savannah temperature yesterday

Maximum temperature yesterday: 51 °F (at 2:58 PM)
Minimum temperature yesterday: 40 °F (at 6:58 AM)
Average temperature yesterday: 45 °F

Past Weeks' High & Low Weather Summary

 TemperatureHumidityPressure
High76 °F (Feb 22, 12:58 PM)100% (Feb 17, 5:58 AM)30.51 "Hg (Feb 17, 5:58 AM)
Low22 °F (Feb 20, 5:58 AM)19% (Feb 19, 3:58 PM)29.51 "Hg (Feb 26, 1:58 AM)
Average46 °F69%30.11 "Hg
* Reported Feb 13 5:58 AM — Feb 28 5:58 AM, Savannah, Weather by CustomWeather, © 2015

Note: Actual official high and low records may vary slightly from our data, if they occured in-between our weather recording intervals... More about our weather records

Advertising

Savannah weather history for previous 24 hours

 ConditionsComfort  
Time TempWeatherWind HumidityBarometerVisibility
5:58 AM
Sat, Feb 28
47 °FOvercast.10 mph74%30.43 "Hg10 mi
4:58 AM46 °FOvercast.6 mph73%30.43 "Hg10 mi
3:58 AM45 °FPassing clouds.7 mph77%30.42 "Hg10 mi
2:58 AM44 °FPassing clouds.8 mph77%30.42 "Hg10 mi
1:58 AM43 °FPassing clouds.5 mph80%30.42 "Hg10 mi
12:58 AM43 °FClear.5 mph84%30.43 "Hg10 mi
11:58 PM
Fri, Feb 27
43 °FClear.5 mph81%30.43 "Hg10 mi
10:58 PM44 °FClear.5 mph78%30.41 "Hg10 mi
9:58 PM44 °FClear.7 mph77%30.41 "Hg10 mi
8:58 PM44 °FClear.3 mph74%30.40 "Hg10 mi
7:58 PM45 °FClear.5 mph71%30.38 "Hg10 mi
6:58 PM46 °FClear.5 mph69%30.36 "Hg10 mi
5:58 PM47 °FSunny.10 mph65%30.34 "Hg10 mi
4:58 PM49 °FSunny.8 mph61%30.33 "Hg10 mi
3:58 PM51 °FSunny.6 mph56%30.33 "Hg10 mi
2:58 PM51 °FSunny.10 mph52%30.32 "Hg10 mi
1:58 PM51 °FSunny.6 mph50%30.34 "Hg10 mi
12:58 PM50 °FPassing clouds.9 mph51%30.35 "Hg10 mi
11:58 AM50 °FSunny.7 mph49%30.37 "Hg10 mi
10:58 AM46 °FPassing clouds.7 mph57%30.37 "Hg10 mi
9:58 AM44 °FSunny.9 mph71%30.35 "Hg10 mi
8:58 AM41 °FPassing clouds.9 mph81%30.32 "Hg10 mi
7:58 AM40 °FSunny.8 mph85%30.28 "Hg10 mi
Weather by CustomWeather, © 2015

See weather overviewHow to use our weather pages